Weather reports worldwide

Advertisment
Waddington, United Kingdom (3377): temperature & dewpoint: 16.05.2019 17:00:00 - 22.05.2019 17:00:00 (BST)Waddington, United Kingdom (3377): temperature -20cm & temperature -100cm: 16.05.2019 17:00:00 - 22.05.2019 17:00:00 (BST)Waddington, United Kingdom (3377): wind speed & gusts: 16.05.2019 17:00:00 - 22.05.2019 17:00:00 (BST)Waddington, United Kingdom (3377): wind direction: 16.05.2019 17:00:00 - 22.05.2019 17:00:00 (BST)Waddington, United Kingdom (3377): reduced air pressure: 16.05.2019 17:00:00 - 22.05.2019 17:00:00 (BST)Waddington, United Kingdom (3377): visibility: 16.05.2019 17:00:00 - 22.05.2019 17:00:00 (BST)Waddington, United Kingdom (3377): sunshine duration: 16.05.2019 17:00:00 - 22.05.2019 17:00:00 (BST)Waddington, United Kingdom (3377): precipitation: 16.05.2019 17:00:00 - 22.05.2019 17:00:00 (BST)
Date & Time tt [°C] td [°C] tt -20cm [°C] tt -100cm [°C] ff [km/h] ff [kn] fx [km/h] fx [kn] dd ppp [hPa] vv [km] sd [min] rr [mm]
22.05.2019 17:00:00 - - - - - - - - - - - - -
22.05.2019 16:00:00 18,8 3,9 - - 18 10 - - WSW 1017,6 10 42 0,0
22.05.2019 15:00:00 17,8 5,2 - - 22 12 - - SW 1018,0 10 36 0,0
22.05.2019 14:00:00 17,5 5,6 - - 18 10 - - WSW 1018,6 25 54 0,0
22.05.2019 13:00:00 16,2 6,1 - - 24 13 - - SW 1018,9 10 42 0,0
22.05.2019 12:00:00 13,3 7,8 - - 18 10 - - SW 1019,3 10 0 0,0
22.05.2019 11:00:00 11,0 6,9 - - 13 7 - - WSW 1019,7 10 0 0,0
22.05.2019 10:00:00 10,4 6,0 13,9 12,7 16 9 - - SW 1019,6 10 0 0,0
22.05.2019 09:00:00 9,4 5,8 - - 16 9 - - SW 1019,9 10 0 0,0
22.05.2019 08:00:00 9,5 5,2 - - 13 7 - - SW 1019,5 10 0 0,0
22.05.2019 07:00:00 9,3 4,9 - - 11 6 - - WSW 1019,3 10 0 0,0
22.05.2019 06:00:00 9,1 4,8 - - 11 6 - - W 1019,4 10 0 0,0
22.05.2019 05:00:00 8,2 4,6 - - 11 6 - - W 1019,6 10 0 0,0
22.05.2019 04:00:00 8,5 4,5 - - 13 7 - - W 1019,8 23 0 0,0
22.05.2019 03:00:00 8,6 4,3 - - 11 6 - - W 1019,8 25 0 0,0
22.05.2019 02:00:00 9,0 3,6 - - 9 5 - - WSW 1019,8 10 0 0,0
22.05.2019 01:00:00 9,9 4,0 - - 11 6 - - WNW 1019,7 10 - 0,0
22.05.2019 00:00:00 10,6 4,3 - - 11 6 - - WNW 1019,6 30 0 0,0
21.05.2019 23:00:00 11,9 6,8 - - 9 5 - - WNW 1019,4 10 0 0,0
21.05.2019 22:00:00 12,9 5,7 - - 9 5 - - W 1019,3 10 0 0,0
21.05.2019 21:00:00 12,8 9,6 - - 13 7 - - ESE 1019,0 10 42 0,0
21.05.2019 20:00:00 14,8 10,6 - - 15 8 - - E 1018,6 10 60 0,0
21.05.2019 19:00:00 18,6 4,8 - - 15 8 - - NW 1018,2 10 60 0,0
21.05.2019 18:00:00 18,8 5,1 - - 18 10 - - NW 1017,9 10 48 0,0
21.05.2019 17:00:00 19,1 5,8 - - 15 8 - - WNW 1017,7 10 54 0,0
21.05.2019 16:00:00 19,5 5,3 - - 15 8 - - NW 1017,8 10 48 0,0
21.05.2019 15:00:00 18,4 6,6 - - 15 8 - - NNW 1017,9 10 42 0,0
21.05.2019 14:00:00 17,6 6,0 - - 16 9 - - NW 1017,9 10 54 0,0
21.05.2019 13:00:00 16,5 7,0 - - 16 9 - - NW 1018,0 10 54 0,0
21.05.2019 12:00:00 15,8 8,0 - - 15 8 - - WNW 1017,9 10 60 0,0
21.05.2019 11:00:00 15,2 8,4 - - 15 8 - - NW 1017,9 10 60 0,0
21.05.2019 10:00:00 13,9 9,3 13,5 12,7 16 9 - - NW 1018,0 20 60 0,0
21.05.2019 09:00:00 12,4 9,1 - - 15 8 - - WNW 1018,0 10 60 0,0
21.05.2019 08:00:00 9,7 7,5 - - 13 7 - - WNW 1017,6 10 60 0,0
21.05.2019 07:00:00 7,8 6,4 - - 13 7 - - W 1017,2 10 30 0,0
21.05.2019 06:00:00 7,3 6,2 - - 11 6 - - W 1016,9 10 24 0,0
21.05.2019 05:00:00 7,2 6,0 - - 11 6 - - W 1016,6 10 0 0,0
21.05.2019 04:00:00 8,2 6,3 - - 15 8 - - W 1016,3 10 0 0,0
21.05.2019 03:00:00 8,7 6,8 - - 16 9 - - W 1016,1 25 0 0,0
21.05.2019 02:00:00 9,5 7,3 - - 9 5 - - W 1016,1 19 0 0,0
21.05.2019 01:00:00 9,9 7,4 - - 9 5 - - NW 1016,0 18 - 0,0
21.05.2019 00:00:00 11,8 9,8 - - 11 6 - - WNW 1015,8 10 0 0,0
20.05.2019 23:00:00 12,1 10,7 - - 5 3 - - SSW 1015,6 10 0 3,0
20.05.2019 22:00:00 12,5 10,3 - - 8 4 - - E 1015,3 10 0 0,0
20.05.2019 21:00:00 13,3 10,2 - - 9 5 - - ESE 1014,4 10 6 0,0
20.05.2019 20:00:00 15,5 11,2 - - 8 4 - - ENE 1013,9 10 18 0,0
20.05.2019 19:00:00 17,8 8,2 - - 5 3 - - N 1013,5 10 42 0,0
20.05.2019 18:00:00 17,7 8,3 - - 15 8 - - NNW 1013,2 10 30 0,0
20.05.2019 17:00:00 17,7 7,9 - - 13 7 - - NNW 1013,0 10 0 0,0
20.05.2019 16:00:00 17,9 7,5 - - 15 8 - - NNW 1013,0 10 6 0,0
20.05.2019 15:00:00 17,5 7,7 - - 15 8 - - NNW 1012,8 10 36 0,0
20.05.2019 14:00:00 18,1 8,5 - - 11 6 - - WNW 1012,7 10 30 0,0
20.05.2019 13:00:00 17,6 8,7 - - 13 7 - - NW 1012,7 35 30 0,0
20.05.2019 12:00:00 16,3 9,4 - - 13 7 - - NNW 1012,7 10 36 0,0
20.05.2019 11:00:00 15,3 9,9 - - 15 8 - - NNW 1012,7 10 48 0,0
20.05.2019 10:00:00 14,0 9,7 13,2 12,4 13 7 - - N 1012,6 10 60 0,0
20.05.2019 09:00:00 12,1 9,1 - - 15 8 - - NW 1012,6 10 60 0,0
20.05.2019 08:00:00 10,4 8,5 - - 18 10 - - NW 1012,3 10 24 0,0
20.05.2019 07:00:00 8,9 7,7 - - 15 8 - - NW 1012,2 10 0 0,0
20.05.2019 06:00:00 8,7 7,7 - - 15 8 - - WNW 1011,8 10 0 0,0
20.05.2019 05:00:00 9,0 7,7 - - 11 6 - - NNW 1011,7 10 0 0,0
20.05.2019 04:00:00 9,6 7,9 - - 9 5 - - NW 1011,6 15 0 0,0
20.05.2019 03:00:00 10,4 8,2 - - 11 6 - - NW 1011,6 16 0 0,0
20.05.2019 02:00:00 10,9 8,8 - - 13 7 - - NNW 1011,6 18 0 0,0
20.05.2019 01:00:00 10,4 9,3 - - 8 4 - - S 1012,0 6 - 0,0
20.05.2019 00:00:00 12,5 10,8 - - 4 2 - - NNE 1011,9 9 0 0,0
19.05.2019 23:00:00 13,2 9,9 - - 9 5 - - NW 1011,6 20 0 0,0
19.05.2019 22:00:00 13,8 10,1 - - 8 4 - - NW 1011,5 19 0 0,0
19.05.2019 21:00:00 13,9 11,0 - - 5 3 - - W 1011,1 11 0 0,0
19.05.2019 20:00:00 13,8 11,2 - - 5 3 - - W 1010,9 11 0 0,0
19.05.2019 19:00:00 13,4 11,7 - - 9 5 - - ESE 1010,7 7 0 0,0
19.05.2019 18:00:00 15,0 10,4 - - 5 3 - - NE 1010,5 17 0 0,0
19.05.2019 17:00:00 15,5 10,4 - - 11 6 - - ENE 1010,3 10 0 0,0
19.05.2019 16:00:00 16,7 8,7 - - 4 2 - - NNW 1010,3 10 0 0,0
19.05.2019 15:00:00 16,4 8,4 - - 4 2 - - SW 1010,3 10 0 0,0
19.05.2019 14:00:00 16,7 8,5 - - 5 3 - - ESE 1010,2 10 36 0,0
19.05.2019 13:00:00 16,6 8,9 - - 8 4 - - ENE 1010,3 10 24 0,0
19.05.2019 12:00:00 15,9 10,0 - - 5 3 - - NNE 1010,3 10 18 0,0
19.05.2019 11:00:00 14,5 9,5 - - 8 4 - - NNE 1010,3 10 18 0,0
19.05.2019 10:00:00 14,3 10,4 12,7 12,2 9 5 - - NNE 1010,3 10 60 0,0
19.05.2019 09:00:00 12,4 10,3 - - 15 8 - - NNW 1010,0 7 60 0,0
19.05.2019 08:00:00 8,4 7,8 - - 11 6 - - WNW 1009,9 1,0 54 0,0
19.05.2019 07:00:00 10,0 10,0 - - 4 2 - - NNW 1009,5 4,5 42 0,0
19.05.2019 06:00:00 8,9 8,9 - - 11 6 - - W 1009,2 4,1 0 0,0
19.05.2019 05:00:00 6,5 6,4 - - 5 3 - - SSW 1009,3 1,2 0 0,0
19.05.2019 04:00:00 7,9 7,9 - - 5 3 - - WSW 1009,3 2,5 0 0,0
19.05.2019 03:00:00 7,9 7,9 - - 4 2 - - SW 1009,0 0,1 0 0,0
19.05.2019 02:00:00 9,2 9,0 - - 5 3 - - S 1008,9 0,1 0 0,0
19.05.2019 01:00:00 10,0 9,8 - - 5 3 - - SSE 1009,0 2,7 - 0,0
19.05.2019 00:00:00 10,5 10,1 - - 5 3 - - SE 1009,1 4,2 0 0,0
18.05.2019 23:00:00 10,9 10,4 - - 5 3 - - SSE 1009,0 4,8 0 0,0
18.05.2019 22:00:00 11,2 10,6 - - 8 4 - - SE 1008,7 6 0 0,0
18.05.2019 21:00:00 11,7 10,9 - - 8 4 - - ESE 1008,3 7 0 0,0
18.05.2019 20:00:00 12,3 10,1 - - 8 4 - - E 1008,0 11 0 0,0
18.05.2019 19:00:00 12,4 9,6 - - 4 2 - - E 1007,6 14 0 0,0
18.05.2019 18:00:00 12,1 10,3 - - 8 4 - - NNE 1007,3 9 0 1,8
18.05.2019 17:00:00 12,7 9,6 - - 8 4 - - NNE 1007,1 10 0 0,0
18.05.2019 16:00:00 14,1 9,4 - - 4 2 - - W 1006,8 10 0 0,0
18.05.2019 15:00:00 14,0 8,3 - - 4 2 - - WSW 1006,7 10 0 0,0
18.05.2019 14:00:00 13,8 8,8 - - 4 2 - - ENE 1006,7 18 0 0,0
18.05.2019 13:00:00 13,2 8,9 - - 5 3 - - NNE 1006,8 10 0 0,0
18.05.2019 12:00:00 12,0 9,4 - - 5 3 - - NNE 1007,0 10 0 0,0
18.05.2019 11:00:00 11,1 9,8 - - 9 5 - - ENE 1007,1 10 0 0,0
18.05.2019 10:00:00 10,7 9,5 12,9 12,2 9 5 - - NNE 1006,9 10 0 0,0
18.05.2019 09:00:00 10,2 9,3 - - 13 7 - - NE 1006,9 8 0 0,2
18.05.2019 08:00:00 10,0 9,6 - - 11 6 - - NNE 1006,7 5 0 0,0
18.05.2019 07:00:00 9,7 9,4 - - 13 7 - - NNE 1006,5 4,5 0 0,0
18.05.2019 06:00:00 9,4 9,2 - - 11 6 - - N 1006,6 6 0 0,2
18.05.2019 05:00:00 9,3 9,0 - - 11 6 - - NE 1006,6 3,4 0 0,0
18.05.2019 04:00:00 9,6 9,1 - - 15 8 - - NNE 1007,0 7 0 0,0
18.05.2019 03:00:00 9,7 9,5 - - 15 8 - - NE 1007,4 5 0 0,0
18.05.2019 02:00:00 10,0 9,8 - - 15 8 - - NNE 1007,7 6 0 0,0
18.05.2019 01:00:00 9,8 9,6 - - 15 8 - - N 1008,0 7 - 0,2
18.05.2019 00:00:00 9,7 9,4 - - 15 8 - - NNE 1008,2 1,9 0 0,0
17.05.2019 23:00:00 10,3 8,6 - - 18 10 - - NE 1008,4 15 0 0,0
17.05.2019 22:00:00 10,7 8,1 - - 16 9 - - NE 1008,6 19 0 0,0
17.05.2019 21:00:00 11,2 7,7 - - 15 8 - - NE 1008,7 22 0 0,0
17.05.2019 20:00:00 11,8 7,9 - - 15 8 - - NE 1008,8 23 0 0,0
17.05.2019 19:00:00 12,9 6,5 - - 16 9 - - NE 1008,7 30 0 0,0
17.05.2019 18:00:00 13,4 6,8 - - 22 12 - - NE 1009,2 35 0 0,0
17.05.2019 17:00:00 14,2 7,0 - - 22 12 - - NE 1009,6 10 0 0,0
17.05.2019 16:00:00 15,4 7,2 - - 24 13 - - NE 1009,8 35 0 0,0
17.05.2019 15:00:00 16,0 7,7 - - 26 14 - - NE 1009,9 30 30 0,0
17.05.2019 14:00:00 16,2 10,8 - - 22 12 - - ENE 1010,5 10 24 0,0
17.05.2019 13:00:00 15,6 10,4 - - 28 15 - - NE 1010,7 10 36 0,0
17.05.2019 12:00:00 14,4 10,4 - - 26 14 - - NE 1011,1 10 6 0,0
17.05.2019 11:00:00 13,0 9,6 - - 26 14 - - NE 1011,8 10 0 0,0
17.05.2019 10:00:00 11,5 8,5 12,7 12,0 26 14 - - NE 1012,2 10 0 0,0
17.05.2019 09:00:00 10,9 9,0 - - 26 14 - - NE 1012,5 10 0 0,0
17.05.2019 08:00:00 10,0 8,8 - - 22 12 - - NNE 1012,9 10 0 0,6
17.05.2019 07:00:00 9,6 8,0 - - 22 12 - - N 1013,0 10 0 0,0
17.05.2019 06:00:00 9,3 6,9 - - 22 12 - - N 1013,7 10 0 0,0
17.05.2019 05:00:00 9,0 7,2 - - 18 10 - - N 1014,1 10 0 0,0
17.05.2019 04:00:00 9,1 8,3 - - 21 11 - - NNE 1014,5 10 0 0,0
17.05.2019 03:00:00 8,6 6,7 - - 21 11 - - NNE 1015,2 10 0 0,2
17.05.2019 02:00:00 9,6 8,0 - - 21 11 - - NE 1015,9 17 0 0,0
17.05.2019 01:00:00 9,2 7,7 - - 16 9 - - NNE 1016,7 16 - 0,0
17.05.2019 00:00:00 8,7 7,2 - - 16 9 - - NNE 1017,4 25 0 0,0
16.05.2019 23:00:00 8,5 6,6 - - 16 9 - - NE 1018,0 30 0 0,0
16.05.2019 22:00:00 9,3 5,6 - - 18 10 - - NE 1018,5 10 0 0,0
16.05.2019 21:00:00 11,0 4,9 - - 18 10 - - NE 1018,4 35 0 0,0
16.05.2019 20:00:00 11,8 3,4 - - 18 10 - - ENE 1018,9 10 0 0,0
16.05.2019 19:00:00 12,3 3,4 - - 26 14 - - ENE 1019,2 10 24 0,0
16.05.2019 18:00:00 12,9 2,5 - - 28 15 - - E 1019,6 10 18 0,0
16.05.2019 17:00:00 14,8 3,0 - - 31 17 46 25 E 1019,8 10 60 0,0

tt = temperature
td = dewpoint
tt -20cm = temperature -20cm
tt -100cm = temperature -100cm
ff = wind speed
fx = gusts
dd = wind direction
ppp = reduced air pressure
vv = visibility
sd = sunshine duration
rr = precipitation

Next stations